User: anonymous   Login
Location: Feydey
(46.3431°N, 7.0106°E)
Time: 23:17:59
(UTC+00:00)
Language:

Cosmos 1707 - Orbit

View from above orbital plane
View from above orbital plane
View from above satellite
View from above satellite

Ground track
Ground track

The orbit data is extracted from the following two-line orbital elements,

1 16326U 85113A   21269.06847322  .00000860  00000-0  44590-4 0  9998
2 16326  82.5076 112.1840 0009053 308.0890  51.9525 15.14834287953399
Epoch (UTC): 26 September 2021 01:38:36
Eccentricity: 0.0009053
inclination: 82.5076°
perigee height: 515 km
apogee height: 528 km
right ascension of ascending node: 112.1840°
argument of perigee: 308.0890°
revolutions per day: 15.14834287
mean anomaly at epoch: 51.9525°
orbit number at epoch: 95339

The dashed part of the orbit path shows where the satellite is in the earth's shadow,  

DLR